Caro, MI

4:12 PM EST on February 20, 2017 (GMT -0500)
Caro

Weather History for KCFS - March, 2013

Change the Weather History Date:

Saturday, March 16, 2013

  Actual Average (KMBS) Record (KMBS)
Temperature  
Mean Temperature 28 °F -  
Max Temperature 30 °F 37 °F 70 °F (2012)
Min Temperature 25 °F 22 °F 8 °F (1998)
Degree Days  
Heating Degree Days 38    
Moisture  
Dew Point 22 °F    
Average Humidity 80    
Maximum Humidity 88    
Minimum Humidity 72    
Precipitation  
Precipitation 0.00 in - - ()
Sea Level Pressure  
Sea Level Pressure 29.93 in    
Wind  
Wind Speed 6 mph (NE)    
Max Wind Speed 12 mph    
Max Gust Speed -    
Visibility 9 miles    
Events Snow    
Averages and records for this station are not official NWS values.
T = Trace of Precipitation, MM = Missing Value Source: NWS Daily Summary

Daily Weather History Graph

Daily Weather History Graph

Search for Another Location

Airport or City:

Trip Planner

Search our weather history database for the weather conditions in past years. The results will help you decide how hot, cold, wet, or windy it might be!

Date:

Astronomy

Mar. 16, 2013 Rise Set
Actual Time 7:43 AM EDT 7:41 PM EDT
Civil Twilight 7:15 AM EDT 8:10 PM EDT
Nautical Twilight 6:42 AM EDT 8:43 PM EDT
Astronomical Twilight 6:08 AM EDT 9:17 PM EDT
Moon 10:03 AM EDT (3/16) 12:02 AM EDT (3/16)
Length of Visible Light 12h 54m
Length of Day
11h 57m
Waxing Crescent, 23% of the Moon is Illuminated
Mar 16
Waxing Crescent
Mar 19
First Quarter
Mar 27
Full
Apr 3
Last Quarter
Apr 10
New

Hourly Weather History & Observations

Time (EDT) Temp. Windchill Dew Point Humidity Pressure Visibility Wind Dir Wind Speed Gust Speed Precip Events Conditions
11:45 AM 28.2 °F 22.0 °F 24.8 °F 87% 29.84 in 10.0 mi North 5.8 mph - N/A   Overcast
11:55 AM 28.4 °F 23.3 °F 24.8 °F 86% 29.84 in 10.0 mi North 4.6 mph - N/A   Overcast
12:14 PM 29.1 °F 22.1 °F 25.2 °F 85% 29.84 in 10.0 mi North 6.9 mph - N/A   Overcast
12:34 PM 29.5 °F 23.4 °F 24.8 °F 83% 29.85 in 10.0 mi North 5.8 mph - N/A   Overcast
12:55 PM 29.7 °F 22.0 °F 25.2 °F 83% 29.85 in 7.0 mi North 8.1 mph - N/A Snow Light Snow
1:14 PM 29.3 °F 21.5 °F 24.8 °F 83% 29.87 in 10.0 mi North 8.1 mph - N/A Snow Light Snow
1:34 PM 29.8 °F 20.9 °F 24.8 °F 81% 29.87 in 10.0 mi North 10.4 mph - N/A Snow Light Snow
1:54 PM 30.0 °F 20.5 °F 24.6 °F 80% 29.88 in 10.0 mi North 11.5 mph - N/A   Overcast
2:14 PM 29.3 °F 20.2 °F 23.5 °F 79% 29.89 in 10.0 mi North 10.4 mph - N/A   Overcast
2:35 PM 29.3 °F 20.2 °F 23.5 °F 79% 29.90 in 10.0 mi North 10.4 mph - N/A   Overcast
2:54 PM 28.9 °F 20.4 °F 23.0 °F 78% 29.90 in 10.0 mi NNE 9.2 mph - N/A   Overcast
3:14 PM 28.4 °F 20.4 °F 22.1 °F 77% 29.90 in 10.0 mi North 8.1 mph - N/A   Overcast
3:35 PM 28.4 °F 21.2 °F 22.3 °F 78% 29.91 in 10.0 mi North 6.9 mph - N/A   Overcast
3:54 PM 28.9 °F 21.1 °F 22.8 °F 78% 29.91 in 7.0 mi North 8.1 mph - N/A   Overcast
4:14 PM 29.1 °F 22.1 °F 22.3 °F 76% 29.90 in 7.0 mi North 6.9 mph - N/A Snow Light Snow
4:35 PM 29.3 °F 23.2 °F 21.2 °F 72% 29.90 in 10.0 mi North 5.8 mph - N/A   Overcast
4:54 PM 29.3 °F 23.2 °F 22.1 °F 75% 29.90 in 7.0 mi North 5.8 mph - N/A Snow Light Snow
5:14 PM 28.9 °F 23.9 °F 21.7 °F 74% 29.91 in 10.0 mi North 4.6 mph - N/A Snow Light Snow
5:35 PM 28.4 °F 22.2 °F 22.5 °F 78% 29.92 in 10.0 mi North 5.8 mph - N/A   Overcast
5:54 PM 28.9 °F 21.9 °F 22.3 °F 76% 29.93 in 10.0 mi North 6.9 mph - N/A   Mostly Cloudy
6:14 PM 28.0 °F 20.0 °F 21.6 °F 77% 29.94 in 10.0 mi North 8.1 mph - N/A   Mostly Cloudy
6:35 PM 28.0 °F 20.0 °F 21.7 °F 77% 29.95 in 10.0 mi NNE 8.1 mph - N/A   Overcast
6:54 PM 26.8 °F 20.2 °F 21.0 °F 79% 29.95 in 10.0 mi ENE 5.8 mph - N/A Snow Light Snow
7:14 PM 26.4 °F 20.9 °F 20.8 °F 79% 29.95 in 10.0 mi East 4.6 mph - N/A   Mostly Cloudy
7:34 PM 26.6 °F 22.6 °F 20.8 °F 79% 29.95 in 10.0 mi East 3.5 mph - N/A   Mostly Cloudy
7:54 PM 26.6 °F 21.2 °F 21.0 °F 79% 29.95 in 10.0 mi East 4.6 mph - N/A   Overcast
8:15 PM 26.6 °F 21.2 °F 20.7 °F 78% 29.96 in 10.0 mi ESE 4.6 mph - N/A   Overcast
8:34 PM 26.2 °F 22.1 °F 20.5 °F 79% 29.97 in 10.0 mi ESE 3.5 mph - N/A   Overcast
8:54 PM 25.7 °F 19.0 °F 20.3 °F 80% 29.97 in 10.0 mi SE 5.8 mph - N/A Snow Light Snow
9:14 PM 25.7 °F 18.0 °F 20.8 °F 82% 29.97 in 10.0 mi SE 6.9 mph - N/A Snow Light Snow
9:34 PM 25.7 °F 21.5 °F 20.8 °F 82% 29.98 in 10.0 mi SSE 3.5 mph - N/A   Overcast
9:55 PM 25.7 °F 18.0 °F 20.8 °F 82% 29.98 in 10.0 mi SE 6.9 mph - N/A Snow Light Snow
10:14 PM 25.5 °F 19.9 °F 20.8 °F 82% 29.99 in 10.0 mi SSE 4.6 mph - N/A Snow Light Snow
10:34 PM 25.5 °F 21.3 °F 21.2 °F 84% 29.99 in 10.0 mi SSE 3.5 mph - N/A Snow Light Snow
10:54 PM 25.3 °F - 21.2 °F 84% 29.99 in 10.0 mi Calm Calm - N/A Snow Light Snow
11:14 PM 25.5 °F - 21.7 °F 86% 30.00 in 7.0 mi Calm Calm - N/A Snow Light Snow
11:35 PM 25.5 °F - 21.9 °F 86% 30.01 in 5.0 mi Calm Calm - N/A Snow Light Snow
11:54 PM 25.7 °F - 22.5 °F 88% 30.02 in 4.0 mi Calm Calm - N/A Snow Light Snow